www.pogodaiklimat.ru

Погода и климат >> Архив погоды >> Ирак >> Dohuk


ПОГОДА в Dohuk

  • Прогноз погоды в Dohuk
  • Монитор погоды в Dohuk
  • Климат города

АРХИВ ПОГОДЫ в Dohuk

Время (UTC), дата Ветер
(напр.,м/с)
 
Видим.   Явления Облачность Т
(С)
Тd
(С)
f
(%)
Тe
(С)
Тes
(С)
Комфортность P
(гПа)
Po
(гПа)
Тmin
(С)
Tmax
(С)
R
(мм)
R24
(мм)
S
(см)
06 20.05 СЗ 1 10 км 4/0
[Ci sp]
+27.0 +11.8 39 +28 +41 жарко 1012.9 1013.0 +20.0
09 20.05 С 2 10 км 1/1 900 м
[Cu hum Ci fib]
+31.4 +12.3 31 +32 +50 жарко 1012.3 1012.0
12 20.05 З 1 10 км 6/1
[Cu hum Ci]
+32.6 +10.6 26 +32 +44 жарко 1010.2 1010.0
15 20.05 Ю 2 10 км 9/0
[As op]
+31.0 +12.4 32 +32 +32 жарко 1009.8 1010.0
18 20.05 ЮВ 2 10 км 5/0
[Ac und Ci fib]
+27.8 +13.8 42 +30 +30 жарко 1010.3 1010.0 +33.3
03 21.05 ЮВ 1 10 км 1/0
[Ac cuf Ci fib]
+22.2 +12.9 56 +25 +26 комфорт 1011.7 1012.0
06 21.05 В 5 9000 м мгла 8/4 900 м
[Sc diur, vesp Ac cuf Ci sp]
+29.7 +13.4 37 +31 +34 жарко 1011.8 1012.0 +22.0
09 21.05 ЮВ 3 8000 м пыль 10/0
[As trans]
+32.0 +12.8 31 +33 +40 жарко 1011.0 1011.0
12 21.05 ЮВ 2 8000 м пыль 10/0
[As trans]
+32.7 +11.3 27 +33 +38 жарко 1009.5 1010.0
18 21.05 ЮВ 3 6000 м пыль 8/0
[As op Ci fib]
+27.4 +13.5 42 +29 +29 жарко 1009.5 1010.0 +33.5
03 22.05 В 1 10 км 8/6 900 м
[Cu Sc Ac cuf Ci sp]
+23.0 +13.3 54 +26 +26 жарко 1011.8 1012.0
06 22.05 С 1 10 км 8/1 900 м
[Cu hum Ac cuf Ci sp]
+26.4 +10.9 38 +27 +35 жарко 1012.9 1013.0 +22.8
09 22.05 В 4 10 км 1/0
[Ci fib]
+30.5 +11.9 32 +31 +45 жарко 1011.9 1012.0
12 22.05 ЮВ 4 9000 м пыль 4/3 900 м
[Cu hum Ci fib]
+32.0 +11.4 28 +32 +38 жарко 1011.2 1011.0
15 22.05 СВ 3 9000 м пыль 6/0
[Ci fib]
+30.3 +12.3 33 +31 +32 жарко 1009.7 1010.0
18 22.05 СЗ 8 9000 м гроза без осадков 9/9 900 м
[Cu Sc]
+25.5 +10.6 39 +26 +26 жарко 1011.8 1012.0 +33.0 0.0
03 23.05 В 2 10 км 6/1
[Cu hum Ac cuf Ci fib]
+23.0 +10.7 46 +25 +26 комфорт 1012.2 1012.0
06 23.05 СВ 2 10 км ясно +27.2 +12.1 39 +28 +40 жарко 1011.5 1012.0 +22.5
09 23.05 ЮВ 3 10 км ясно +31.5 +13.2 33 +33 +50 жарко 1010.9 1011.0
12 23.05 В 3 9000 м в посл. час гроза 9/9 900 м
[Cu Sc]
+24.4 +15.4 57 +27 +28 жарко 1010.3 1010.0
18 23.05 В 4 10 км 8/8 900 м
[Cu Sc]
+27.0 +10.4 35 +28 +28 жарко 1009.2 1009.0 +33.2 2
03 24.05 В 1 10 км 3/0
[Ac cuf]
+19.9 +14.2 70 +23 +24 комфорт 1008.6 1009.0
06 24.05 ЮВ 2 10 км 8/8 900 м
[Cu Sc]
+27.5 +14.4 45 +30 +32 жарко 1010.8 1011.0 +19.9 3
09 24.05 Ю 3 10 км 8/8 900 м
[Cu Sc]
+29.5 +12.3 35 +31 +34 жарко 1010.0 1010.0
12 24.05 Ю 2 10 км 8/8 900 м
[Cu Sc]
+30.6 +12.3 33 +31 +34 жарко 1009.2 1009.0
15 24.05 В 1 10 км 8/8 900 м
[Cu Sc]
+29.5 +13.4 37 +31 +31 жарко 1007.0 1007.0
18 24.05 ЮВ 2 10 км 5/3 900 м
[Cu med, cong Ac cuf Ci sp]
+26.0 +13.1 45 +28 +28 жарко 1006.0 1006.0 +33.3
03 25.05 ЮВ 1 10 км ясно +19.6 +13.5 68 +22 +23 комфорт 1007.2 1007.0
06 25.05 СВ 1 10 км ясно +25.5 +11.3 41 +27 +41 жарко 1007.7 1008.0 +19.5
09 25.05 СЗ 3 10 км 1/1 900 м
[Cu hum]
+30.0 +12.8 35 +31 +47 жарко 1006.9 1007.0
12 25.05 З 1 10 км 1/1 900 м
[Cu hum]
+32.0 +12.4 30 +32 +46 жарко 1005.2 1005.0
15 25.05 З 1 10 км 1/1 900 м
[Cu hum]
+31.3 +11.8 30 +32 +33 жарко 1004.8 1005.0
03 26.05 ЮЗ 1 10 км 3/3 900 м
[]
+20.9 +12.9 60 +24 +25 комфорт 1009.5 1010.0
06 26.05 З 1 10 км 1/0
[Ci sp]
+27.1 +14.5 46 +30 +43 душно 1009.8 1010.0 +20.5
09 26.05 СВ 2 10 км 1/1 900 м
[Cu med, cong Ci sp]
+31.5 +9.8 26 +31 +50 жарко 1009.0 1009.0
12 26.05 СЗ 5 9000 м пыль 1/1 900 м
[Cu med, cong Ci sp]
+33.2 +8.7 22 +32 +38 жарко 1009.3 1009.0
15 26.05 СЗ 4 8000 м пыль 1/1 900 м
[Cu med, cong]
+32.3 +8.8 23 +31 +32 жарко 1008.8 1009.0
18 26.05 штиль 0 8000 м пыль 1/0
[Ci sp]
+27.3 +12.2 39 +29 +29 жарко 1009.6 1010.0 +34.0

 

Местоположение метеостанции Dohuk (Ирак): широта 36.87 долгота 43.00 высота над уровнем моря 276 м.

В архиве по умолчанию представлена погода в Dohuk за последнюю неделю. Архивные данные за месяц целиком и за предыдущие месяцы, начиная с января 2011 года, Вы можете получить, выбрав интересующий диапазон дат из раскрывающегося списка и нажав кнопку "Ввод!".


*Определитесь, кто Вы:
робот инопланетянин человек

Внимание! Время в таблицах - всемирное. Для получения местного времени необходимо прибавить поправку, которая в Dohuk равна 3 ч.

Смотрите также архив погоды в соседних городах и на ближайших метеорологических станциях:

Погода в Zakho (Ирак) (38 км)
Погода в Mosul (Ирак) (63 км)
Погода в Aqraa (Ирак) (79 км)
Погода в Rabiah (Ирак) (80 км)
Погода в S?rnak (Турция) (87 км)
Погода в Hakkari (Турция) (104 км)
Погода в Erbeel (Ирак) (120 км)
Погода в Salahadin (Ирак) (120 км)
Погода в Makhmoor (Ирак) (136 км)
Погода в Siirt (Турция) (150 км)

Пояснения к столбцам:

Ветер - указаны скорость ветра в м/с - средняя за 10 мин, порывы в срок и между сроками (в фигурных скобках) и направление, откуда дует ветер: С - северный, СВ - северо-восточный, В - восточный, ЮВ - юго-восточный, Ю - южный, ЮЗ - юго-западный, З - западный, СЗ - северо-западный.
Видимость - горизонтальная дальность видимости в метрах или километрах. При видимости от 1 до 10 км при отсутствии осадков обычно наблюдается дымка, при ухудшении видимости до 1 км и менее - туман. В сухую погоду видимость может ухудшаться дымом, пылью или мглою.
Явления - указаны атмосферные явления, наблюдавшиеся в срок или в последний час перед сроком; фигурными скобками обозначены явления, наблюдавшиеся между сроками (за 1-3 часа до срока); квадратными скобками обозначены град или гололедные отложения с указанием их диаметра в мм.
Облачность - указаны через наклонную черту общая и нижняя облачность в баллах и высота нижней границы облаков в метрах; квадратными скобками обозначены формы облаков: Ci - перистые, Cs - перисто-слоистые, Cc - перисто-кучевые, Ac - высококучевые, As - высокослоистые, Sc - слоисто-кучевые, Ns - слоисто-дождевые, Cu - кучевые, Cb - кучево-дождевые. Подробнее классификацию облаков см. в Атласе облаков (PDF).
T - Температура воздуха - температура, измеренная на высоте 2 м над землей.
Td - Температура точки росы - температура, при понижении до которой содержащийся в воздухе водяной пар достигнет насыщения.
f - Относительная влажность воздуха - влажноcть воздуха, измеренная на высоте 2 м над землей.
Te - Эффективная температура - температура, которую ощущает одетый по сезону человек в тени. Характеристика душности погоды. При расчете учитывается влияние влажности воздуха и скорости ветра на теплоощущения человека.
Tes - Эффективная температура на солнце - температура, которую ощущает человек, с поправкой на солнечный нагрев. Характеристика знойности погоды. Зависит от высоты солнца над горизонтом, облачности и скорости ветра. Ночью, в пасмурную погоду, а также при ветре 12 м/с и более поправка равна нулю.
P - Атмосферное давление - приведенное к уровню моря атмосферное давление.
Po - Атмосферное давление - измеренное на уровне метеостанции атмосферное давление.
Tmin - Минимальная температура - минимум температуры воздуха на высоте 2 м над землей.
Tmax - Максимальная температура - максимум температуры воздуха на высоте 2 м над землей.
R - Количество осадков - Количество выпавших осадков за период времени, мм. При наведении курсора мыши на число - период времени, за который выпало указанное количество осадков.
R24 - Количество осадков - Количество выпавших осадков за 24 часа, мм.
S - Снежный покров - Высота снежного покрова, см. При наведении курсора мыши на число - состояние снежного покрова и степень покрытия местности в баллах.